Theta_e
319 319 318 318 318 320 323 324 325 325 322 322 322 324 322 323 326 340 339 335 334 333 333 334 336 333 333 333 331 331 330 331 332 333 335 333 330 324 321 319 319 318 317 317
319 320 319 321 322 324 324 323 323 324 323 321 320 320 323 324 325 336 338 335 334 333 332 333 332 329 335 333 332 331 333 335 335 335 332 326 322 320 319 317 316 316 316 316
321 322 325 325 324 324 323 324 324 324 322 321 320 320 328 328 327 337 337 336 334 334 333 332 330 329 329 334 333 335 334 334 332 325 323 321 320 319 319 319 318 318 317 315
321 324 323 324 326 323 325 325 326 326 324 324 321 322 328 327 325 328 336 335 334 333 331 330 331 329 334 335 333 331 331 327 324 322 320 319 319 320 320 319 318 317 315 315
325 324 325 325 326 326 325 326 326 326 325 322 322 321 323 324 326 325 323 331 332 331 331 332 330 332 334 332 331 329 325 323 321 320 319 320 321 320 318 319 316 316 314 311
325 323 324 324 325 324 325 323 321 322 319 322 322 326 326 324 327 324 323 325 335 332 331 330 331 331 331 330 327 324 322 320 320 321 320 319 317 318 317 315 315 314 313 312
327 325 326 325 325 323 322 322 325 328 327 325 321 326 323 323 322 322 321 329 332 330 329 327 328 323 326 328 323 321 320 321 320 316 316 317 318 316 315 313 313 313 313 312
331 328 328 327 325 325 325 322 324 328 326 323 323 329 324 322 321 321 320 323 329 328 325 326 327 321 321 321 320 319 319 316 316 316 317 318 316 314 313 314 313 313 312 311
331 331 327 327 327 324 327 325 321 321 325 324 325 326 324 322 323 322 321 321 320 320 322 322 322 320 320 319 319 316 315 315 315 317 317 316 315 314 314 313 311 310 309 308
328 329 330 330 327 327 326 325 326 322 330 328 325 328 327 326 325 323 321 319 318 317 316 316 318 318 318 316 315 315 314 315 316 317 316 314 314 313 312 310 308 308 308 308
326 325 327 329 331 330 329 325 323 321 323 326 329 327 324 324 322 321 320 319 318 318 315 314 316 317 316 315 315 314 314 316 316 315 315 314 313 312 309 308 307 307 308 308
331 327 329 327 327 328 327 326 321 323 322 325 323 325 321 321 321 321 321 319 319 316 313 313 316 316 315 314 314 314 314 315 315 315 314 313 312 310 309 308 308 308 308 309
331 325 329 329 324 326 328 327 323 320 319 323 325 325 323 322 322 321 319 318 317 315 313 312 314 314 314 314 314 313 315 315 315 314 312 311 310 309 308 308 309 308 308 308
328 328 327 328 325 329 328 327 326 323 324 323 326 326 325 323 321 320 319 316 315 315 314 312 312 314 315 314 314 314 315 314 313 312 310 310 309 308 308 309 309 308 308 308
327 329 332 330 329 326 325 325 325 324 322 324 323 323 324 322 320 319 318 316 316 316 315 314 312 313 314 314 314 314 314 313 311 310 309 309 309 308 309 309 308 308 308 308
325 329 330 329 329 330 330 328 326 325 326 326 324 326 323 321 319 319 318 318 318 317 316 315 314 314 314 314 314 313 314 312 309 308 309 308 308 308 309 309 308 308 308 308
328 329 329 330 329 330 328 329 328 327 326 324 326 326 323 322 323 319 319 319 319 318 316 315 314 314 314 314 314 313 313 310 308 308 307 307 307 308 309 308 308 308 308 308
331 329 329 331 330 333 328 329 329 331 331 326 328 327 323 322 321 319 318 318 319 318 317 314 315 315 314 314 313 313 311 309 307 307 306 307 308 308 308 308 307 307 308 308
327 330 333 334 334 331 331 329 329 329 332 331 328 327 326 324 323 324 318 318 318 317 317 316 316 315 315 314 313 312 309 307 306 306 306 307 308 308 308 307 307 307 307 308
328 327 331 331 334 334 329 330 328 325 329 325 330 328 326 323 324 323 322 321 319 320 319 317 316 316 314 313 312 310 308 306 306 306 306 307 308 307 307 307 306 306 306 307
328 330 330 329 332 331 330 329 326 327 325 325 327 326 327 325 321 322 322 321 321 321 320 319 316 314 314 313 311 309 307 306 306 306 306 308 308 307 307 306 305 305 306 306
330 330 331 330 333 334 328 327 328 323 326 328 326 325 326 324 324 324 322 321 321 321 320 317 315 314 312 311 310 307 306 306 306 306 306 308 307 307 306 304 304 305 306 307
330 329 332 328 328 323 326 326 326 324 327 326 323 323 324 323 322 321 319 321 322 321 318 316 314 312 310 309 309 307 306 306 306 306 307 308 307 307 304 303 304 304 306 306
325 327 326 324 324 327 326 328 327 326 325 325 324 322 320 319 319 319 320 321 320 321 318 315 313 310 309 308 308 307 306 305 306 306 308 307 307 306 304 304 304 304 305 306
322 321 326 325 324 327 328 328 326 327 326 325 325 323 321 320 319 320 319 320 319 321 317 315 313 310 309 309 308 307 306 306 306 307 308 307 307 306 304 304 305 305 305 306
319 320 321 322 319 322 323 322 321 320 319 318 320 320 319 321 319 319 317 320 320 320 316 314 312 310 309 309 308 307 306 306 307 308 307 307 307 307 306 305 305 305 306 306
Wind_Speed
5 6 4 9 7 5 6 7 7 3 6 5 1 3 6 8 13 17 14 12 12 13 12 22 18 14 22 23 21 19 16 13 10 7 4 3 7 9 13 16 16 19 21 21
6 5 10 8 5 8 8 8 6 3 3 4 5 7 5 7 7 15 16 14 13 6 7 19 17 14 23 24 22 18 15 12 10 6 1 3 7 10 16 16 17 21 20 23
6 8 4 3 6 8 4 6 1 3 5 3 5 6 4 5 10 10 6 10 12 16 16 11 13 14 12 16 18 16 12 10 7 1 3 5 9 13 10 12 12 12 16 18
5 4 7 8 5 4 4 3 3 5 5 3 4 2 3 4 7 9 8 9 10 11 6 6 9 12 15 17 15 13 8 5 5 2 6 8 8 9 10 10 12 13 17 15
6 4 7 7 2 2 3 3 3 3 3 4 2 5 6 2 6 5 7 11 10 10 7 6 12 21 24 19 15 13 10 8 4 4 5 5 7 9 10 9 11 15 14 19
4 5 5 5 5 5 2 6 8 5 3 3 4 4 3 2 3 2 6 7 9 6 7 11 17 15 16 15 17 15 12 8 6 6 4 4 7 8 6 9 12 14 17 18
6 4 1 5 5 7 11 8 5 6 6 4 4 5 5 3 5 7 8 7 7 6 7 8 11 14 24 23 22 16 12 9 7 3 3 5 4 4 8 11 12 14 16 16
3 4 3 3 5 3 4 6 5 0 2 5 6 3 4 6 5 7 8 7 6 7 4 6 11 19 22 20 14 11 12 8 3 1 3 2 2 6 9 9 10 13 14 18
3 2 3 5 3 6 4 3 5 5 2 2 3 2 5 6 7 7 7 7 6 7 6 5 9 13 13 12 13 12 9 5 3 1 2 3 7 8 8 9 15 19 21 23
2 2 3 3 7 3 4 2 4 4 1 2 5 3 4 6 7 5 6 8 8 7 9 8 14 15 16 15 12 9 7 6 4 4 5 6 8 7 12 19 22 22 22 22
5 4 6 4 2 4 4 3 5 4 4 3 2 5 6 8 8 7 7 7 7 6 6 8 13 16 13 11 8 7 6 5 6 7 8 8 8 14 22 24 23 22 20 19
2 5 2 2 4 2 4 5 5 5 6 1 4 6 6 8 9 8 6 5 2 7 8 9 17 15 12 9 7 7 6 5 6 8 10 8 11 18 23 21 20 20 22 21
3 2 3 7 7 5 5 1 3 4 3 5 5 6 1 6 6 5 9 7 7 8 8 8 11 12 9 7 6 6 5 5 6 9 9 11 13 17 22 20 19 24 22 20
7 3 6 7 6 2 4 4 4 5 4 3 5 7 5 6 8 6 5 7 8 8 8 7 7 9 7 5 4 5 4 5 6 9 11 11 13 18 19 18 19 25 20 18
5 3 1 2 2 2 3 5 6 3 6 5 7 7 6 8 8 7 6 8 8 7 7 7 6 7 5 3 3 4 5 3 6 11 12 13 15 17 17 18 25 20 18 18
3 2 2 4 5 7 5 7 7 5 3 2 8 4 4 2 5 4 8 8 7 7 7 7 6 9 5 2 1 5 2 3 9 11 12 15 16 18 18 22 23 19 18 16
4 4 3 3 4 5 4 5 6 2 6 3 4 2 2 3 4 6 6 7 7 7 7 8 8 9 7 4 1 4 1 6 10 12 15 14 17 18 18 25 20 18 17 16
6 6 3 4 3 2 5 2 0 10 5 6 7 7 2 5 3 7 6 8 8 8 7 8 11 10 8 6 1 3 2 6 11 15 14 16 18 18 21 22 18 17 16 14
5 5 3 3 2 5 1 4 3 2 2 2 5 4 6 4 1 3 6 7 8 8 13 15 14 9 10 5 3 4 4 8 12 13 17 19 18 17 23 19 18 18 16 13
7 5 5 2 3 6 5 3 4 2 4 5 2 2 3 4 3 4 7 5 8 15 15 15 13 11 9 7 6 3 5 10 12 14 17 18 19 18 17 16 17 14 12 8
2 1 5 4 3 6 6 6 1 4 6 2 2 4 1 3 5 4 6 6 15 19 16 13 13 12 11 10 4 5 6 8 11 14 15 17 11 17 14 15 12 11 9 6
7 6 3 3 2 6 4 4 5 6 3 1 4 5 4 5 5 4 7 7 9 13 15 15 16 15 12 7 3 6 7 8 10 13 14 16 16 12 13 14 10 8 7 6
0 6 5 7 6 4 1 3 3 4 2 3 2 2 0 2 4 7 6 8 10 11 11 16 19 17 11 7 5 7 6 8 10 13 15 11 14 10 15 14 11 8 8 7
5 2 3 3 4 5 5 4 3 3 4 3 3 3 1 4 6 7 7 8 10 6 16 18 21 16 12 8 6 7 7 8 10 13 15 13 9 10 17 14 11 9 10 11
2 3 3 2 4 5 6 3 3 1 4 3 2 2 4 4 8 5 7 9 16 8 15 20 20 16 13 8 6 4 6 7 9 12 10 13 7 9 12 14 14 12 12 13
2 4 3 4 5 5 2 2 4 4 2 3 3 3 6 3 7 10 9 16 19 8 20 20 19 17 14 9 6 3 5 5 9 10 11 8 7 6 6 10 15 16 13 12
Wind_Direction
352 53 275 273 228 204 113 73 71 19 356 80 8 278 328 104 101 137 144 159 174 186 207 202 209 212 199 191 175 183 186 197 195 190 196 326 339 339 333 337 338 335 330 329
7 282 240 239 214 83 70 58 358 270 30 87 359 8 34 47 114 147 155 175 179 173 202 214 215 200 198 187 185 183 179 189 156 172 142 341 325 321 329 326 317 312 316 323
169 236 217 90 34 81 57 93 51 220 340 340 60 27 44 35 93 115 155 176 175 184 196 213 207 224 216 205 191 168 170 143 132 184 300 300 315 318 300 296 297 301 312 321
208 237 85 77 69 118 47 310 25 347 39 284 86 256 334 53 57 118 150 180 189 194 205 211 218 209 182 168 179 200 168 146 169 254 309 317 293 271 283 294 302 313 320 327
281 96 95 81 141 87 252 8 328 296 236 66 31 78 279 333 49 29 129 191 194 193 195 188 199 181 176 182 187 161 155 182 212 292 300 280 258 280 288 294 307 315 317 329
200 157 102 153 41 67 348 15 22 33 79 45 345 132 303 298 167 45 51 101 162 165 175 173 172 172 174 169 158 163 176 192 205 209 232 257 277 281 290 316 316 316 326 331
3 353 54 87 50 21 52 46 354 9 11 237 338 65 218 231 172 138 123 123 160 178 176 172 181 148 152 161 167 179 181 178 172 209 264 271 263 306 331 334 321 323 329 335
103 8 7 10 116 107 72 117 138 299 298 282 337 89 232 222 92 73 82 138 161 162 194 192 173 157 153 164 170 173 148 147 150 307 274 186 317 342 343 335 329 336 335 323
100 12 5 119 85 106 322 24 180 113 11 31 287 359 5 59 69 72 68 60 97 150 199 177 157 165 160 157 148 143 139 111 43 51 128 359 349 337 332 342 337 340 335 332
192 78 38 351 61 26 128 177 26 16 311 313 312 224 223 181 173 133 105 111 93 106 124 154 160 155 148 134 126 111 74 56 52 80 50 23 359 7 349 345 344 339 332 327
112 102 291 43 35 211 0 20 61 111 130 165 313 276 218 198 180 155 144 134 156 151 98 117 116 125 129 124 106 86 75 77 81 56 24 11 9 359 353 350 344 339 333 329
56 133 142 193 278 186 164 173 126 117 269 183 155 274 294 187 177 149 145 184 192 83 120 130 135 136 131 123 106 82 41 59 48 23 5 359 353 351 340 338 339 341 336 329
186 30 46 353 351 351 49 344 121 119 79 205 141 264 333 67 99 153 132 139 96 117 123 128 128 127 125 111 87 39 43 59 22 6 9 353 348 353 337 332 336 337 335 331
82 112 152 187 205 190 327 313 305 123 122 220 218 250 187 184 164 174 176 120 132 138 135 135 132 132 127 110 56 42 53 32 24 15 3 355 348 351 335 336 333 337 340 339
89 108 94 181 295 356 291 286 302 289 215 157 252 194 184 193 191 198 158 147 117 118 133 146 153 151 145 96 54 29 19 24 20 5 1 354 345 340 340 339 337 340 344 343
28 198 85 341 339 5 316 326 327 282 237 22 71 122 244 69 103 100 139 126 129 140 150 159 173 153 159 116 57 358 20 15 3 13 2 348 340 343 346 339 340 341 342 344
123 122 84 279 331 341 2 331 300 3 27 127 82 280 71 99 117 131 141 142 157 177 175 183 187 168 170 172 137 2 99 4 10 3 349 345 341 342 346 344 344 345 344 346
136 124 113 204 25 356 240 240 279 100 69 60 50 37 115 142 211 153 180 172 187 192 192 192 179 183 177 172 139 125 88 24 8 355 345 343 342 342 342 344 345 343 344 344
136 118 90 129 181 277 293 15 358 37 345 313 132 168 139 164 217 297 217 198 195 200 208 196 190 183 170 159 141 127 51 17 7 356 341 339 343 337 341 343 343 347 342 338
49 74 118 151 133 237 235 258 235 205 287 221 57 35 304 150 28 262 265 232 221 213 198 190 190 167 159 148 140 91 38 9 2 349 342 339 343 338 343 345 348 347 342 344
148 116 179 168 201 278 224 218 4 107 242 298 359 292 263 138 197 237 293 310 238 225 208 202 181 160 154 149 132 83 32 9 353 342 346 346 342 346 353 350 350 354 7 29
184 146 181 99 143 278 165 118 167 217 222 278 28 352 47 29 351 327 289 309 303 217 211 184 159 149 148 146 100 85 35 1 351 346 354 349 342 356 0 1 10 14 34 57
254 178 181 167 211 248 318 102 200 178 130 54 52 258 268 329 306 295 312 340 334 274 198 176 162 150 153 141 65 80 44 5 346 355 2 351 350 18 12 23 22 34 49 78
343 159 80 87 320 258 245 172 125 172 129 156 155 198 275 312 323 310 313 309 300 295 188 174 161 155 146 134 88 69 40 14 340 5 6 355 14 41 34 36 40 56 66 81
219 47 133 341 335 31 35 114 186 37 43 4 319 270 271 278 302 295 300 295 284 289 183 175 167 159 150 143 111 65 32 7 353 9 11 356 42 54 43 44 49 66 76 80
205 177 145 200 234 155 208 163 147 123 50 32 74 6 341 288 279 295 296 307 300 236 175 169 164 155 154 151 127 74 30 7 0 12 1 12 48 59 66 69 71 72 73 68